Time,TemperatureF,DewpointF,PressureIn,WindDirection,WindDirectionDegrees,WindSpeedMPH,WindSpeedGustMPH,Humidity,HourlyPrecipIn,Conditions,Clouds,dailyrainin,SoftwareType,DateUTC
2013-08-21 00:12:00,85.0,54.0,30.01,North,0,0.0,0.0,35,-99.99,,,-99.99,,2013-08-21 06:12:00,
2013-08-21 00:22:00,85.0,55.0,30.02,SSW,204,0.0,2.0,36,-99.99,,,-99.99,,2013-08-21 06:22:00,
2013-08-21 00:52:00,84.0,58.0,30.01,North,0,0.0,0.0,41,-99.99,,,-99.99,,2013-08-21 06:52:00,
2013-08-21 01:21:00,82.0,57.0,30.02,North,0,0.0,0.0,43,-99.99,,,-99.99,,2013-08-21 07:21:00,
2013-08-21 01:53:00,80.0,57.0,30.02,North,0,0.0,0.0,46,-99.99,,,-99.99,,2013-08-21 07:53:00,
2013-08-21 02:22:00,81.0,52.0,30.02,ESE,115,5.0,10.0,36,-99.99,,,-99.99,,2013-08-21 08:22:00,
2013-08-21 02:52:00,80.0,52.0,30.03,South,170,3.0,7.0,38,-99.99,,,-99.99,,2013-08-21 08:52:00,
2013-08-21 03:22:00,79.0,53.0,30.03,SE,132,3.0,5.0,41,-99.99,,,-99.99,,2013-08-21 09:22:00,
2013-08-21 03:53:00,78.0,56.0,30.02,SSW,200,0.0,2.0,47,-99.99,,,-99.99,,2013-08-21 09:53:00,
2013-08-21 04:23:00,76.0,59.0,30.02,North,0,0.0,0.0,56,-99.99,,,-99.99,,2013-08-21 10:23:00,
2013-08-21 04:52:00,76.0,60.0,30.02,SSW,201,1.0,4.0,57,-99.99,,,-99.99,,2013-08-21 10:52:00,
2013-08-21 05:22:00,75.0,60.0,30.03,North,0,0.0,0.0,59,-99.99,,,-99.99,,2013-08-21 11:22:00,
2013-08-21 05:52:00,75.0,60.0,30.03,SE,132,3.0,5.0,59,-99.99,,,-99.99,,2013-08-21 11:52:00,
2013-08-21 06:22:00,75.0,58.0,30.04,SE,142,3.0,6.0,56,-99.99,,,-99.99,,2013-08-21 12:22:00,
2013-08-21 06:52:00,74.0,59.0,30.04,North,0,0.0,0.0,59,-99.99,,,-99.99,,2013-08-21 12:52:00,
2013-08-21 07:21:00,74.0,58.0,30.06,North,0,0.0,0.0,58,-99.99,,,-99.99,,2013-08-21 13:21:00,
2013-08-21 07:52:00,75.0,55.0,30.06,ESE,120,2.0,5.0,50,-99.99,,,-99.99,,2013-08-21 13:52:00,
2013-08-21 08:21:00,77.0,55.0,30.07,SE,131,1.0,4.0,46,-99.99,,,-99.99,,2013-08-21 14:21:00,
2013-08-21 08:52:00,78.0,54.0,30.08,ESE,113,4.0,8.0,43,-99.99,,,-99.99,,2013-08-21 14:52:00,
2013-08-21 09:22:00,80.0,55.0,30.08,SSE,159,6.0,10.0,43,-99.99,,,-99.99,,2013-08-21 15:22:00,
2013-08-21 09:54:00,82.0,54.0,30.08,East,98,7.0,11.0,38,-99.99,,,-99.99,,2013-08-21 15:54:00,
2013-08-21 10:24:00,83.0,52.0,30.09,ESE,104,8.0,13.0,35,-99.99,,,-99.99,,2013-08-21 16:24:00,
2013-08-21 10:53:00,85.0,53.0,30.09,ESE,105,7.0,12.0,34,-99.99,,,-99.99,,2013-08-21 16:53:00,
2013-08-21 11:23:00,86.0,53.0,30.09,SE,131,7.0,13.0,32,-99.99,,,-99.99,,2013-08-21 17:23:00,
2013-08-21 11:53:00,87.0,52.0,30.09,SE,132,9.0,16.0,30,-99.99,,,-99.99,,2013-08-21 17:53:00,
2013-08-21 12:12:00,89.0,52.0,30.09,SE,127,8.0,15.0,28,-99.99,,,-99.99,,2013-08-21 18:12:00,
2013-08-21 12:22:00,89.0,54.0,30.09,SE,127,6.0,12.0,30,-99.99,,,-99.99,,2013-08-21 18:22:00,
2013-08-21 12:52:00,90.0,52.0,30.08,ESE,121,8.0,17.0,28,-99.99,,,-99.99,,2013-08-21 18:52:00,
2013-08-21 13:22:00,92.0,51.0,30.08,SSE,156,7.0,12.0,25,-99.99,,,-99.99,,2013-08-21 19:22:00,
2013-08-21 13:52:00,93.0,51.0,30.06,NNE,21,7.0,12.0,24,-99.99,,,-99.99,,2013-08-21 19:52:00,
2013-08-21 14:22:00,93.0,50.0,30.05,ESE,117,3.0,8.0,23,-99.99,,,-99.99,,2013-08-21 20:22:00,
2013-08-21 14:52:00,94.0,48.0,30.04,SE,128,6.0,13.0,21,-99.99,,,-99.99,,2013-08-21 20:52:00,
2013-08-21 15:21:00,93.0,48.0,30.02,ESE,118,5.0,10.0,22,-99.99,,,-99.99,,2013-08-21 21:21:00,
2013-08-21 15:54:00,93.0,47.0,30.01,SE,134,7.0,13.0,21,-99.99,,,-99.99,,2013-08-21 21:54:00,
2013-08-21 16:24:00,93.0,46.0,30.01,ESE,114,3.0,9.0,20,-99.99,,,-99.99,,2013-08-21 22:24:00,
2013-08-21 16:53:00,92.0,44.0,30.00,SE,128,4.0,7.0,19,-99.99,,,-99.99,,2013-08-21 22:53:00,
2013-08-21 17:12:00,95.0,45.0,29.99,SSE,158,7.0,15.0,18,-99.99,,,-99.99,,2013-08-21 23:12:00,
2013-08-21 17:22:00,95.0,46.0,29.99,East,98,8.0,14.0,19,-99.99,,,-99.99,,2013-08-21 23:22:00,
2013-08-21 17:52:00,94.0,45.0,29.99,ESE,121,8.0,13.0,19,-99.99,,,-99.99,,2013-08-21 23:52:00,
2013-08-21 18:21:00,94.0,47.0,29.98,East,90,9.0,15.0,20,-99.99,,,-99.99,,2013-08-22 00:21:00,
2013-08-21 18:42:00,93.0,47.0,29.97,East,82,7.0,15.0,21,-99.99,,,-99.99,,2013-08-22 00:42:00,
2013-08-21 18:52:00,92.0,46.0,29.98,SSE,150,9.0,16.0,21,-99.99,,,-99.99,,2013-08-22 00:52:00,
2013-08-21 19:22:00,91.0,46.0,29.97,East,86,8.0,14.0,21,-99.99,,,-99.99,,2013-08-22 01:22:00,
2013-08-21 19:52:00,90.0,41.0,29.98,East,98,9.0,17.0,18,-99.99,,,-99.99,,2013-08-22 01:52:00,
2013-08-21 20:22:00,88.0,39.0,29.99,East,91,10.0,15.0,18,-99.99,,,-99.99,,2013-08-22 02:22:00,
2013-08-21 21:22:00,86.0,38.0,30.01,ESE,103,8.0,13.0,18,-99.99,,,-99.99,,2013-08-22 03:22:00,
2013-08-21 21:54:00,85.0,37.0,30.03,ESE,110,9.0,16.0,18,-99.99,,,-99.99,,2013-08-22 03:54:00,
2013-08-21 22:23:00,84.0,37.0,30.04,East,100,9.0,14.0,19,-99.99,,,-99.99,,2013-08-22 04:23:00,
2013-08-21 22:54:00,83.0,38.0,30.05,ESE,107,8.0,14.0,20,-99.99,,,-99.99,,2013-08-22 04:54:00,
2013-08-21 23:22:00,82.0,39.0,30.06,ESE,110,5.0,9.0,22,-99.99,,,-99.99,,2013-08-22 05:22:00,
2013-08-21 23:52:00,81.0,42.0,30.09,SE,145,5.0,10.0,25,-99.99,,,-99.99,,2013-08-22 05:52:00,